Starlink 4297

operational
NORAD ID: 53543 Int'l Des: 2022-101 Owner: SPXS Country: US Constellation: starlink
LEOCIRCULAR

关于 Starlink 4297

正在加载描述...

实时位置

正在加载3D地球...

即将过境

高度历史

Altitude vs Time

uPlot chart will show altitude changes over time

两行轨道根数

1 53543U 22101S 25354.48743144 .00000025 00000-0 19642-4 0 9993
2 53543 53.2175 59.7406 0001308 85.9527 274.1614 15.08835010185037
Epoch: Dec 20, 2025 • Age: 7 hours

当前状态

高度 543.4 km
速度 7.60 km/s
星下点 43.86°N, 175.58°W
发射日期 Aug 19, 2022
运行时间 3.3 years
类型 internet

技术详情

分类 Payload
质量 300.00 kg
干质量 290.00 kg
总质量 300.00 kg
长度 0.20 m
直径 2.80 m
跨度 9.00 m
形状 Box + pan
制造商 SPXS
平台类型 Starlink
阶段状态 In Orbit
所有者/国家 SPXS/US

大型星座

Loading constellations...